Flag for Namibia Weather past 2 weeks in Windhoek, Namibia

Now
61 °F

Refreshingly cool.


Feels Like: 61 °F
Forecast: 43 / 77 °F
Wind: 3 mph from South

Location: Windhoek

Current Time: Aug 21, 2014 at 9:26:55 PM

Latest Report: Aug 21, 2014 at 8:00 PM


Visibility: N/A

Pressure: 30.21 "Hg

Humidity: 10%

Dew point: 3 °F

Location of WindhoekLocation

Historic Weather in Windhoek — Graph

°F

Windhoek temperature yesterday

Maximum temperature yesterday: 77 °F (at 12:00 PM)
Minimum temperature yesterday: 57 °F (at 5:00 AM)
Average temperature yesterday: 66 °F

Past Weeks' High & Low Weather Summary

 TemperatureHumidityPressure
High81 °F (Aug 12, 2:00 PM)55% (Aug 20, 5:00 AM)30.36 "Hg (Aug 20, 5:00 AM)
Low37 °F (Aug 8, 6:00 AM)2% (Aug 7, 1:00 PM)30.09 "Hg (Aug 7, 1:00 PM)
Average62 °F22%30.21 "Hg
* Reported Aug 6 8:00 PM — Aug 21 8:00 PM, Windhoek, Weather by CustomWeather, © 2014

Note: Actual official high and low records may vary slightly from our data, if they occured in-between our weather recording intervals... More about our weather records

Advertising

Windhoek weather history for previous 24 hours

 ConditionsComfort  
Time TempWeatherWind HumidityBarometerVisibility
8:00 PM
Aug 21
61 °FRefreshingly cool.3 mph10%30.21 "HgN/A
7:00 PM63 °FClear.5 mph11%30.18 "Hg10 mi
6:00 PM68 °FClear.7 mph10%30.15 "Hg10 mi
5:00 PM72 °FClear.12 mph8%30.12 "Hg10 mi
4:00 PM75 °FSunny.12 mph9%30.12 "Hg10 mi
3:00 PM75 °FSunny.15 mph11%30.12 "Hg10 mi
2:00 PM75 °FSunny.13 mph11%30.12 "Hg10 mi
1:00 PM77 °FSunny.12 mph11%30.12 "Hg10 mi
12:00 PM75 °FSunny.9 mph14%30.15 "Hg10 mi
11:00 AM72 °FSunny.6 mph17%30.21 "Hg10 mi
10:00 AM66 °FSunny.3 mph26%30.21 "Hg10 mi
8:00 AM59 °FSunny.No wind36%30.21 "Hg10 mi
7:00 AM54 °FSunny.3 mph44%30.18 "Hg10 mi
6:00 AM52 °FSunny.6 mph44%30.15 "Hg10 mi
5:00 AM54 °FCool.2 mph41%30.18 "HgN/A
4:00 AM54 °FCool.2 mph41%30.15 "HgN/A
3:00 AM55 °FRefreshingly cool.5 mph38%30.18 "HgN/A
2:00 AM54 °FCool.3 mph38%30.18 "HgN/A
1:00 AM57 °FRefreshingly cool.1 mph36%30.18 "HgN/A
12:00 AM57 °FRefreshingly cool.2 mph33%30.21 "HgN/A
11:00 PM
Aug 20
59 °FRefreshingly cool.6 mph31%30.18 "HgN/A
10:00 PM59 °FRefreshingly cool.5 mph31%30.21 "HgN/A
9:00 PM63 °FMild.2 mph27%30.21 "HgN/A
Weather by CustomWeather, © 2014

See weather overviewHow to use our weather pages